• In Hungary
  • List of Countries
  • For 7 days
  • Water Temperature
  • Satellite Maps
  • Weather Map
  • News
  • Weather Widgets
  • user-avatar
    Login

    Hourly Weather Horobiivka

    Today, 23 October, Monday

    Time Temperature Precipitation Wind Pressure Humidity
    00:00 +1°C° 0 mm 3 mps 744 mmHg 74%
    01:00 +1°C° 0 mm 3 mps 744 mmHg 75%
    02:00 +1°C° 0 mm 2 mps 743 mmHg 77%
    03:00 +1°C° 0 mm 2 mps 743 mmHg 78%
    04:00 0°C° 0 mm 3 mps 743 mmHg 78%
    05:00 0°C° 0 mm 3 mps 743 mmHg 79%
    06:00 0°C° 0 mm 3 mps 743 mmHg 77%
    07:00 0°C° 0 mm 4 mps 743 mmHg 75%
    08:00 +1°C° 0 mm 5 mps 742 mmHg 72%
    09:00 +2°C° 0 mm 5 mps 742 mmHg 68%
    10:00 +3°C° 0 mm 5 mps 742 mmHg 63%
    11:00 +5°C° 0 mm 5 mps 742 mmHg 59%
    12:00 +6°C° 0 mm 5 mps 742 mmHg 57%
    13:00 +6°C° 0 mm 5 mps 742 mmHg 55%
    14:00 +7°C° 0 mm 4 mps 741 mmHg 53%
    15:00 +6°C° 0 mm 4 mps 741 mmHg 54%
    16:00 +6°C° 0 mm 4 mps 741 mmHg 54%
    17:00 +5°C° 0 mm 4 mps 741 mmHg 55%
    18:00 +5°C° 0 mm 4 mps 741 mmHg 57%
    19:00 +5°C° 0 mm 4 mps 741 mmHg 59%
    20:00 +5°C° 0 mm 5 mps 741 mmHg 61%
    21:00 +5°C° 0.1 mm 5 mps 742 mmHg 64%
    22:00 +5°C° 0.1 mm 5 mps 742 mmHg 67%
    23:00 +5°C° 0.1 mm 5 mps 742 mmHg 69%

    Tomorrow, 24 October, Tuesday

    Time Temperature Precipitation Wind Pressure Humidity
    00:00 +3°C° 0 mm 5 mps 742 mmHg 71%
    01:00 +3°C° 0 mm 5 mps 742 mmHg 72%
    02:00 +3°C° 0 mm 5 mps 742 mmHg 73%
    03:00 +3°C° 0 mm 5 mps 743 mmHg 71%
    04:00 +3°C° 0 mm 5 mps 743 mmHg 70%
    05:00 +3°C° 0 mm 5 mps 743 mmHg 69%
    06:00 +3°C° 0 mm 5 mps 743 mmHg 68%
    07:00 +2°C° 0 mm 5 mps 744 mmHg 66%
    08:00 +2°C° 0 mm 6 mps 744 mmHg 65%
    09:00 +3°C° 0 mm 6 mps 745 mmHg 62%
    10:00 +3°C° 0 mm 6 mps 745 mmHg 58%
    11:00 +4°C° 0 mm 6 mps 746 mmHg 55%
    12:00 +4°C° 0.1 mm 6 mps 746 mmHg 55%
    13:00 +4°C° 0.1 mm 6 mps 746 mmHg 55%
    14:00 +5°C° 0.1 mm 5 mps 747 mmHg 54%
    15:00 +5°C° 0.1 mm 5 mps 747 mmHg 55%
    16:00 +3°C° 0.1 mm 5 mps 747 mmHg 56%
    17:00 +3°C° 0.1 mm 5 mps 747 mmHg 57%
    18:00 +3°C° 0 mm 4 mps 748 mmHg 58%
    19:00 +3°C° 0 mm 4 mps 748 mmHg 60%
    20:00 +3°C° 0 mm 4 mps 748 mmHg 61%
    21:00 +1°C° 0 mm 4 mps 749 mmHg 62%
    22:00 0°C° 0 mm 4 mps 749 mmHg 64%
    23:00 +1°C° 0 mm 3 mps 749 mmHg 66%

    Day after tomorrow, 25 October, Wednesday

    Time Temperature Precipitation Wind Pressure Humidity
    00:00 0°C° 0 mm 3 mps 749 mmHg 67%
    01:00 0°C° 0 mm 3 mps 750 mmHg 68%
    02:00 0°C° 0 mm 3 mps 750 mmHg 69%
    03:00 -1°C° 0 mm 3 mps 750 mmHg 71%
    04:00 -1°C° 0 mm 3 mps 750 mmHg 72%
    05:00 -1°C° 0 mm 3 mps 750 mmHg 73%
    06:00 -2°C° 0 mm 4 mps 751 mmHg 72%
    07:00 -2°C° 0 mm 4 mps 751 mmHg 70%
    08:00 -2°C° 0 mm 4 mps 751 mmHg 69%
    09:00 0°C° 0 mm 4 mps 751 mmHg 63%
    10:00 +1°C° 0 mm 4 mps 751 mmHg 57%
    11:00 +4°C° 0 mm 4 mps 752 mmHg 52%
    12:00 +4°C° 0 mm 3 mps 751 mmHg 50%
    13:00 +5°C° 0 mm 3 mps 751 mmHg 48%
    14:00 +7°C° 0 mm 3 mps 751 mmHg 46%
    15:00 +5°C° 0 mm 3 mps 751 mmHg 50%
    16:00 +5°C° 0 mm 2 mps 751 mmHg 54%
    17:00 +4°C° 0 mm 2 mps 751 mmHg 58%
    18:00 +3°C° 0 mm 2 mps 751 mmHg 61%
    19:00 +2°C° 0 mm 2 mps 751 mmHg 64%
    20:00 +2°C° 0 mm 2 mps 751 mmHg 66%
    21:00 +2°C° 0 mm 2 mps 750 mmHg 66%
    22:00 +2°C° 0 mm 2 mps 750 mmHg 67%
    23:00 +2°C° 0 mm 2 mps 750 mmHg 67%

    26 October, Thursday

    Time Temperature Precipitation Wind Pressure Humidity
    00:00 +2°C° 0 mm 2 mps 750 mmHg 66%
    01:00 +1°C° 0 mm 3 mps 750 mmHg 64%
    02:00 +2°C° 0 mm 3 mps 750 mmHg 63%
    03:00 +2°C° 0 mm 3 mps 749 mmHg 63%
    04:00 +1°C° 0 mm 4 mps 749 mmHg 63%
    05:00 +1°C° 0 mm 4 mps 748 mmHg 63%
    06:00 +3°C° 0 mm 4 mps 748 mmHg 64%
    07:00 +2°C° 0 mm 5 mps 748 mmHg 64%
    08:00 +2°C° 0 mm 6 mps 747 mmHg 65%
    09:00 +3°C° 0.1 mm 5 mps 747 mmHg 67%
    10:00 +5°C° 0.1 mm 5 mps 747 mmHg 70%
    11:00 +6°C° 0.1 mm 5 mps 746 mmHg 72%
    12:00 +6°C° 0 mm 5 mps 746 mmHg 74%
    13:00 +7°C° 0 mm 5 mps 746 mmHg 76%
    14:00 +8°C° 0 mm 4 mps 746 mmHg 77%
    15:00 +8°C° 0 mm 4 mps 745 mmHg 80%
    16:00 +8°C° 0 mm 4 mps 745 mmHg 84%
    17:00 +9°C° 0 mm 3 mps 745 mmHg 87%
    18:00 +9°C° 0 mm 3 mps 745 mmHg 87%
    19:00 +9°C° 0 mm 3 mps 745 mmHg 88%
    20:00 +9°C° 0 mm 3 mps 745 mmHg 89%
    21:00 +9°C° 0 mm 3 mps 744 mmHg 90%
    22:00 +8°C° 0 mm 3 mps 744 mmHg 91%
    23:00 +8°C° 0 mm 3 mps 744 mmHg 93%

    27 October, Friday

    Time Temperature Precipitation Wind Pressure Humidity
    00:00 +7°C° 0 mm 4 mps 744 mmHg 93%
    01:00 +7°C° 0 mm 4 mps 743 mmHg 93%
    02:00 +7°C° 0 mm 4 mps 743 mmHg 93%
    03:00 +7°C° 0 mm 4 mps 742 mmHg 92%
    04:00 +7°C° 0 mm 4 mps 742 mmHg 92%
    05:00 +7°C° 0 mm 4 mps 741 mmHg 92%
    06:00 +7°C° 0.4 mm 4 mps 741 mmHg 92%
    07:00 +7°C° 0.4 mm 4 mps 741 mmHg 92%
    08:00 +7°C° 0.4 mm 4 mps 740 mmHg 92%
    09:00 +8°C° 0.4 mm 4 mps 740 mmHg 90%
    10:00 +8°C° 0.4 mm 4 mps 740 mmHg 89%
    11:00 +10°C° 0.4 mm 4 mps 739 mmHg 87%
    12:00 +10°C° 0.1 mm 4 mps 739 mmHg 85%
    13:00 +11°C° 0.1 mm 4 mps 738 mmHg 82%
    14:00 +12°C° 0.1 mm 4 mps 737 mmHg 80%
    15:00 +11°C° 0.7 mm 4 mps 737 mmHg 83%
    16:00 +11°C° 0.7 mm 3 mps 736 mmHg 87%
    17:00 +11°C° 0.7 mm 3 mps 736 mmHg 90%
    18:00 +10°C° 0.4 mm 3 mps 735 mmHg 92%
    19:00 +10°C° 0.4 mm 2 mps 735 mmHg 93%
    20:00 +10°C° 0.4 mm 2 mps 735 mmHg 95%
    21:00 +9°C° 0.5 mm 2 mps 734 mmHg 95%
    22:00 +9°C° 0.5 mm 2 mps 734 mmHg 95%
    23:00 +9°C° 0.5 mm 2 mps 733 mmHg 95%

    28 October, Saturday

    Time Temperature Precipitation Wind Pressure Humidity
    00:00 +9°C° 0.2 mm 2 mps 733 mmHg 95%
    01:00 +9°C° 0.2 mm 2 mps 732 mmHg 95%
    02:00 +9°C° 0.2 mm 1 mps 732 mmHg 95%
    03:00 +8°C° 1.3 mm 2 mps 731 mmHg 95%
    04:00 +8°C° 1.3 mm 3 mps 731 mmHg 95%
    05:00 +7°C° 1.3 mm 3 mps 731 mmHg 95%
    06:00 +6°C° 1.4 mm 4 mps 731 mmHg 94%
    07:00 +6°C° 1.4 mm 4 mps 731 mmHg 93%
    08:00 +6°C° 1.4 mm 5 mps 731 mmHg 92%
    09:00 +6°C° 0.3 mm 5 mps 731 mmHg 89%
    10:00 +7°C° 0.3 mm 5 mps 732 mmHg 86%
    11:00 +7°C° 0.3 mm 5 mps 732 mmHg 83%
    12:00 +8°C° 0.1 mm 5 mps 732 mmHg 78%
    13:00 +9°C° 0.1 mm 5 mps 732 mmHg 73%
    14:00 +9°C° 0.1 mm 5 mps 732 mmHg 68%
    15:00 +8°C° 0 mm 5 mps 732 mmHg 70%
    16:00 +8°C° 0 mm 4 mps 732 mmHg 73%
    17:00 +7°C° 0 mm 4 mps 732 mmHg 76%
    18:00 +6°C° 0.1 mm 5 mps 732 mmHg 77%
    19:00 +6°C° 0.1 mm 5 mps 733 mmHg 78%
    20:00 +4°C° 0.1 mm 6 mps 733 mmHg 79%
    21:00 +5°C° 0 mm 5 mps 733 mmHg 80%
    22:00 +3°C° 0 mm 5 mps 733 mmHg 81%
    23:00 +3°C° 0 mm 4 mps 733 mmHg 82%

    29 October, Sunday

    Time Temperature Precipitation Wind Pressure Humidity
    00:00 +3°C° 0 mm 4 mps 734 mmHg 84%
    01:00 +3°C° 0 mm 4 mps 734 mmHg 85%
    02:00 +3°C° 0 mm 4 mps 734 mmHg 87%
    03:00 +2°C° 0 mm 3 mps 734 mmHg 89%
    04:00 +2°C° 0 mm 3 mps 734 mmHg 91%
    05:00 +2°C° 0 mm 3 mps 734 mmHg 93%
    06:00 +2°C° 0 mm 3 mps 734 mmHg 92%
    07:00 +2°C° 0 mm 3 mps 734 mmHg 91%
    08:00 +3°C° 0 mm 3 mps 734 mmHg 90%
    09:00 +4°C° 0 mm 4 mps 734 mmHg 83%
    10:00 +6°C° 0 mm 5 mps 734 mmHg 77%
    11:00 +7°C° 0 mm 5 mps 734 mmHg 70%
    12:00 +8°C° 0 mm 5 mps 733 mmHg 66%
    13:00 +8°C° 0 mm 5 mps 733 mmHg 62%
    14:00 +9°C° 0 mm 5 mps 733 mmHg 58%
    15:00 +8°C° 0 mm 4 mps 733 mmHg 62%
    16:00 +7°C° 0 mm 4 mps 733 mmHg 67%
    17:00 +8°C° 0 mm 3 mps 733 mmHg 71%
    18:00 +7°C° 0.1 mm 3 mps 733 mmHg 73%
    19:00 +7°C° 0.1 mm 2 mps 733 mmHg 75%
    20:00 +6°C° 0.1 mm 2 mps 733 mmHg 78%
    21:00 +6°C° 0 mm 2 mps 733 mmHg 80%
    22:00 +5°C° 0 mm 2 mps 733 mmHg 82%
    23:00 +5°C° 0 mm 2 mps 733 mmHg 84%
    Show more